Time,TemperatureF,DewpointF,PressureIn,WindDirection,WindDirectionDegrees,WindSpeedMPH,WindSpeedGustMPH,Humidity,HourlyPrecipIn,Conditions,Clouds,dailyrainin,SoftwareType,DateUTC
2013-04-25 00:02:00,54.0,51.0,30.23,SW,215,0.0,5.0,91,0.00,,,0.42,,2013-04-25 05:02:00,
2013-04-25 00:12:00,54.0,51.0,30.23,SW,215,0.0,5.0,91,0.00,,,0.42,,2013-04-25 05:12:00,
2013-04-25 00:21:00,54.0,51.0,30.23,West,279,1.0,6.0,90,0.00,,,0.42,,2013-04-25 05:21:00,
2013-04-25 00:32:00,53.0,50.0,30.23,NNW,345,0.0,4.0,91,0.00,,,0.42,,2013-04-25 05:32:00,
2013-04-25 00:42:00,53.0,50.0,30.23,NNW,345,0.0,4.0,91,0.00,,,0.42,,2013-04-25 05:42:00,
2013-04-25 00:51:00,53.0,50.0,30.23,SSW,212,0.0,2.0,91,0.00,,,0.42,,2013-04-25 05:51:00,
2013-04-25 01:02:00,53.0,50.0,30.23,South,172,0.0,2.0,91,0.00,,,0.42,,2013-04-25 06:02:00,
2013-04-25 01:11:00,53.0,50.0,30.23,South,172,0.0,2.0,91,0.00,,,0.42,,2013-04-25 06:11:00,
2013-04-25 01:22:00,53.0,50.0,30.24,North,5,0.0,4.0,91,0.00,,,0.42,,2013-04-25 06:22:00,
2013-04-25 01:31:00,53.0,50.0,30.23,ESE,120,0.0,4.0,91,0.00,,,0.42,,2013-04-25 06:31:00,
2013-04-25 01:42:00,53.0,50.0,30.23,ESE,120,0.0,4.0,91,0.00,,,0.42,,2013-04-25 06:42:00,
2013-04-25 01:52:00,53.0,51.0,30.24,NE,34,0.0,4.0,92,0.00,,,0.42,,2013-04-25 06:52:00,
2013-04-25 02:01:00,52.0,50.0,30.24,East,79,0.0,5.0,92,0.00,,,0.42,,2013-04-25 07:01:00,
2013-04-25 02:12:00,52.0,50.0,30.24,East,79,0.0,5.0,92,0.00,,,0.42,,2013-04-25 07:12:00,
2013-04-25 02:22:00,52.0,50.0,30.24,East,79,0.0,5.0,92,0.00,,,0.42,,2013-04-25 07:22:00,
2013-04-25 02:32:00,52.0,50.0,30.24,NE,34,1.0,3.0,93,0.00,,,0.42,,2013-04-25 07:32:00,
2013-04-25 02:42:00,52.0,50.0,30.24,NE,34,1.0,3.0,93,0.00,,,0.42,,2013-04-25 07:42:00,
2013-04-25 02:52:00,52.0,50.0,30.24,North,4,1.0,5.0,92,0.00,,,0.42,,2013-04-25 07:52:00,
2013-04-25 03:02:00,52.0,50.0,30.24,East,96,0.0,3.0,93,0.00,,,0.42,,2013-04-25 08:02:00,
2013-04-25 03:11:00,52.0,50.0,30.24,East,96,0.0,3.0,93,0.00,,,0.42,,2013-04-25 08:11:00,
2013-04-25 03:21:00,52.0,50.0,30.24,NNE,12,0.0,3.0,93,0.00,,,0.42,,2013-04-25 08:21:00,
2013-04-25 03:31:00,52.0,50.0,30.24,WNW,298,0.0,3.0,94,0.00,,,0.42,,2013-04-25 08:31:00,
2013-04-25 03:42:00,52.0,50.0,30.24,WNW,298,0.0,3.0,94,0.00,,,0.42,,2013-04-25 08:42:00,
2013-04-25 03:51:00,51.0,50.0,30.24,NE,43,0.0,2.0,95,0.00,,,0.42,,2013-04-25 08:51:00,
2013-04-25 04:01:00,51.0,50.0,30.24,North,8,0.0,5.0,96,0.00,,,0.42,,2013-04-25 09:01:00,
2013-04-25 04:11:00,51.0,50.0,30.24,North,8,0.0,5.0,96,0.00,,,0.42,,2013-04-25 09:11:00,
2013-04-25 04:21:00,51.0,50.0,30.24,NNW,333,0.0,4.0,96,0.00,,,0.42,,2013-04-25 09:21:00,
2013-04-25 04:33:00,50.0,49.0,30.23,ENE,60,1.0,4.0,96,0.00,,,0.42,,2013-04-25 09:33:00,
2013-04-25 04:42:00,50.0,49.0,30.23,ENE,60,1.0,4.0,96,0.00,,,0.42,,2013-04-25 09:42:00,
2013-04-25 04:52:00,50.0,49.0,30.24,NNW,345,1.0,5.0,95,0.00,,,0.42,,2013-04-25 09:52:00,
2013-04-25 05:02:00,50.0,49.0,30.24,NE,56,2.0,5.0,95,0.00,,,0.42,,2013-04-25 10:02:00,
2013-04-25 05:12:00,50.0,49.0,30.24,NE,56,2.0,5.0,95,0.00,,,0.42,,2013-04-25 10:12:00,
2013-04-25 05:22:00,50.0,49.0,30.24,North,360,2.0,6.0,95,0.00,,,0.42,,2013-04-25 10:22:00,
2013-04-25 05:32:00,50.0,48.0,30.25,North,356,1.0,4.0,94,0.00,,,0.42,,2013-04-25 10:32:00,
2013-04-25 05:42:00,50.0,48.0,30.25,North,356,1.0,4.0,94,0.00,,,0.42,,2013-04-25 10:42:00,
2013-04-25 05:53:00,50.0,48.0,30.25,WSW,257,1.0,6.0,94,0.00,,,0.42,,2013-04-25 10:53:00,
2013-04-25 06:02:00,50.0,49.0,30.26,ESE,110,0.0,7.0,95,0.00,,,0.42,,2013-04-25 11:02:00,
2013-04-25 06:12:00,50.0,49.0,30.26,ESE,110,0.0,7.0,95,0.00,,,0.42,,2013-04-25 11:12:00,
2013-04-25 06:22:00,50.0,49.0,30.25,NE,49,1.0,10.0,95,0.00,,,0.42,,2013-04-25 11:22:00,
2013-04-25 06:32:00,50.0,49.0,30.26,East,86,1.0,5.0,95,0.00,,,0.42,,2013-04-25 11:32:00,
2013-04-25 06:42:00,50.0,49.0,30.26,East,86,1.0,5.0,95,0.00,,,0.42,,2013-04-25 11:42:00,
2013-04-25 06:52:00,50.0,49.0,30.27,NW,310,1.0,4.0,95,0.00,,,0.42,,2013-04-25 11:52:00,
2013-04-25 07:01:00,50.0,49.0,30.27,NW,310,1.0,4.0,95,0.00,,,0.42,,2013-04-25 12:01:00,
2013-04-25 07:12:00,50.0,49.0,30.27,NW,310,1.0,4.0,95,0.00,,,0.42,,2013-04-25 12:12:00,
2013-04-25 07:21:00,50.0,49.0,30.27,NNE,32,1.0,4.0,95,0.00,,,0.42,,2013-04-25 12:21:00,
2013-04-25 07:31:00,51.0,50.0,30.27,SE,127,0.0,4.0,95,0.00,,,0.42,,2013-04-25 12:31:00,
2013-04-25 07:42:00,51.0,50.0,30.27,SE,127,0.0,4.0,95,0.00,,,0.42,,2013-04-25 12:42:00,
2013-04-25 07:51:00,51.0,50.0,30.28,NW,305,0.0,3.0,95,0.00,,,0.42,,2013-04-25 12:51:00,
2013-04-25 08:02:00,51.0,49.0,30.30,WSW,239,0.0,6.0,94,0.00,,,0.42,,2013-04-25 13:02:00,
2013-04-25 08:11:00,51.0,49.0,30.30,WSW,239,0.0,6.0,94,0.00,,,0.42,,2013-04-25 13:11:00,
2013-04-25 08:21:00,51.0,49.0,30.30,NW,304,1.0,3.0,93,0.00,,,0.42,,2013-04-25 13:21:00,
2013-04-25 08:32:00,52.0,50.0,30.31,ENE,63,0.0,2.0,93,0.00,,,0.42,,2013-04-25 13:32:00,
2013-04-25 08:42:00,52.0,50.0,30.31,ENE,63,0.0,2.0,93,0.00,,,0.42,,2013-04-25 13:42:00,
2013-04-25 08:52:00,53.0,51.0,30.31,North,358,0.0,4.0,92,0.00,,,0.42,,2013-04-25 13:52:00,
2013-04-25 09:02:00,53.0,51.0,30.31,SE,146,0.0,1.0,92,0.00,,,0.42,,2013-04-25 14:02:00,
2013-04-25 09:11:00,53.0,51.0,30.31,SE,146,0.0,1.0,92,0.00,,,0.42,,2013-04-25 14:11:00,
2013-04-25 09:21:00,54.0,51.0,30.32,East,79,0.0,5.0,90,0.00,,,0.42,,2013-04-25 14:21:00,
2013-04-25 09:32:00,55.0,52.0,30.31,SE,146,0.0,4.0,88,0.00,,,0.20,,2013-04-25 14:32:00,
2013-04-25 09:42:00,55.0,52.0,30.31,SE,146,0.0,4.0,88,0.00,,,0.20,,2013-04-25 14:42:00,
2013-04-25 09:51:00,55.0,51.0,30.31,ESE,117,0.0,4.0,87,0.00,,,0.20,,2013-04-25 14:51:00,
2013-04-25 10:02:00,56.0,52.0,30.31,ENE,67,0.0,5.0,86,0.00,,,0.20,,2013-04-25 15:02:00,
2013-04-25 10:11:00,56.0,52.0,30.31,ENE,67,0.0,5.0,86,0.00,,,0.20,,2013-04-25 15:11:00,
2013-04-25 10:21:00,56.0,52.0,30.32,East,98,0.0,5.0,86,0.00,,,0.16,,2013-04-25 15:21:00,
2013-04-25 10:33:00,57.0,53.0,30.33,NNE,17,0.0,3.0,87,0.00,,,0.16,,2013-04-25 15:33:00,
2013-04-25 10:42:00,57.0,53.0,30.33,NNE,17,0.0,3.0,87,0.00,,,0.16,,2013-04-25 15:42:00,
2013-04-25 10:53:00,59.0,53.0,30.33,East,79,0.0,4.0,81,0.00,,,0.16,,2013-04-25 15:53:00,
2013-04-25 11:02:00,61.0,54.0,30.34,NNE,32,0.0,4.0,78,0.00,,,0.16,,2013-04-25 16:02:00,
2013-04-25 11:13:00,61.0,54.0,30.34,NNE,32,0.0,4.0,78,0.00,,,0.16,,2013-04-25 16:13:00,
2013-04-25 11:24:00,63.0,54.0,30.34,East,96,1.0,5.0,73,0.00,,,0.04,,2013-04-25 16:24:00,
2013-04-25 11:32:00,63.0,54.0,30.34,East,96,1.0,5.0,73,0.00,,,0.04,,2013-04-25 16:32:00,
2013-04-25 11:42:00,63.0,54.0,30.34,East,96,1.0,5.0,73,0.00,,,0.04,,2013-04-25 16:42:00,
2013-04-25 11:52:00,63.0,53.0,30.35,ESE,117,0.0,5.0,71,0.00,,,0.04,,2013-04-25 16:52:00,
2013-04-25 12:02:00,64.0,52.0,30.35,NE,49,1.0,4.0,66,0.00,,,0.04,,2013-04-25 17:02:00,
2013-04-25 12:11:00,64.0,52.0,30.35,NE,49,1.0,4.0,66,0.00,,,0.04,,2013-04-25 17:11:00,
2013-04-25 12:22:00,65.0,53.0,30.35,NNE,30,0.0,4.0,65,0.00,,,0.04,,2013-04-25 17:22:00,
2013-04-25 12:32:00,66.0,55.0,30.35,East,98,2.0,5.0,68,0.00,,,0.04,,2013-04-25 17:32:00,
2013-04-25 12:42:00,66.0,55.0,30.35,East,98,2.0,5.0,68,0.00,,,0.04,,2013-04-25 17:42:00,
2013-04-25 12:53:00,66.0,54.0,30.34,NNE,32,1.0,6.0,66,0.00,,,0.04,,2013-04-25 17:53:00,
2013-04-25 13:01:00,68.0,54.0,30.33,NNE,30,0.0,3.0,60,0.00,,,0.04,,2013-04-25 18:01:00,
2013-04-25 13:11:00,68.0,54.0,30.33,NNE,30,0.0,3.0,60,0.00,,,0.04,,2013-04-25 18:11:00,
2013-04-25 13:22:00,67.0,54.0,30.33,East,94,1.0,3.0,64,0.00,,,0.04,,2013-04-25 18:22:00,
2013-04-25 13:32:00,68.0,53.0,30.32,ESE,120,0.0,4.0,58,0.00,,,0.00,,2013-04-25 18:32:00,
2013-04-25 13:42:00,68.0,53.0,30.32,ESE,120,0.0,4.0,58,0.00,,,0.00,,2013-04-25 18:42:00,
2013-04-25 13:52:00,68.0,52.0,30.33,SE,139,1.0,6.0,56,0.00,,,0.00,,2013-04-25 18:52:00,
2013-04-25 14:01:00,68.0,52.0,30.32,ESE,115,1.0,5.0,56,0.00,,,0.00,,2013-04-25 19:01:00,
2013-04-25 14:12:00,68.0,52.0,30.32,ESE,115,1.0,5.0,56,0.00,,,0.00,,2013-04-25 19:12:00,
2013-04-25 14:21:00,68.0,52.0,30.32,ESE,113,0.0,4.0,56,0.00,,,0.00,,2013-04-25 19:21:00,
2013-04-25 14:31:00,68.0,50.0,30.32,ESE,113,1.0,4.0,53,0.00,,,0.00,,2013-04-25 19:31:00,
2013-04-25 14:42:00,68.0,50.0,30.32,ESE,113,1.0,4.0,53,0.00,,,0.00,,2013-04-25 19:42:00,
2013-04-25 14:52:00,70.0,50.0,30.32,ESE,105,1.0,4.0,50,0.00,,,0.00,,2013-04-25 19:52:00,
2013-04-25 15:02:00,70.0,48.0,30.31,ESE,109,1.0,7.0,45,0.00,,,0.00,,2013-04-25 20:02:00,
2013-04-25 15:11:00,70.0,48.0,30.31,ESE,109,1.0,7.0,45,0.00,,,0.00,,2013-04-25 20:11:00,
2013-04-25 15:22:00,69.0,47.0,30.30,ENE,68,0.0,6.0,45,0.00,,,0.00,,2013-04-25 20:22:00,
2013-04-25 15:32:00,69.0,48.0,30.29,ESE,103,1.0,6.0,48,0.00,,,0.00,,2013-04-25 20:32:00,
2013-04-25 15:42:00,69.0,48.0,30.29,ESE,103,1.0,6.0,48,0.00,,,0.00,,2013-04-25 20:42:00,
2013-04-25 15:52:00,69.0,48.0,30.29,ESE,103,1.0,6.0,48,0.00,,,0.00,,2013-04-25 20:52:00,
2013-04-25 16:01:00,67.0,49.0,30.29,ENE,64,0.0,3.0,53,0.00,,,0.00,,2013-04-25 21:01:00,
2013-04-25 16:11:00,67.0,49.0,30.29,ENE,64,0.0,3.0,53,0.00,,,0.00,,2013-04-25 21:11:00,
2013-04-25 16:22:00,68.0,50.0,30.29,SE,133,0.0,2.0,52,0.00,,,0.00,,2013-04-25 21:22:00,
2013-04-25 16:33:00,69.0,49.0,30.28,WNW,290,0.0,5.0,49,0.00,,,0.00,,2013-04-25 21:33:00,
2013-04-25 16:42:00,69.0,49.0,30.28,WNW,290,0.0,5.0,49,0.00,,,0.00,,2013-04-25 21:42:00,
2013-04-25 16:52:00,70.0,50.0,30.28,East,81,0.0,3.0,50,0.00,,,0.00,,2013-04-25 21:52:00,
2013-04-25 17:02:00,70.0,52.0,30.27,East,85,1.0,3.0,52,0.00,,,0.00,,2013-04-25 22:02:00,
2013-04-25 17:12:00,70.0,52.0,30.27,East,85,1.0,3.0,52,0.00,,,0.00,,2013-04-25 22:12:00,
2013-04-25 17:22:00,70.0,51.0,30.27,NNE,27,0.0,4.0,51,0.00,,,0.00,,2013-04-25 22:22:00,
2013-04-25 17:33:00,70.0,52.0,30.27,SE,128,0.0,2.0,53,0.00,,,0.00,,2013-04-25 22:33:00,
2013-04-25 17:42:00,70.0,52.0,30.27,SE,128,0.0,2.0,53,0.00,,,0.00,,2013-04-25 22:42:00,
2013-04-25 17:52:00,71.0,51.0,30.27,SE,126,2.0,5.0,50,0.00,,,0.00,,2013-04-25 22:52:00,
2013-04-25 18:02:00,71.0,49.0,30.27,East,98,0.0,4.0,46,0.00,,,0.00,,2013-04-25 23:02:00,
2013-04-25 18:12:00,71.0,49.0,30.27,East,98,0.0,4.0,46,0.00,,,0.00,,2013-04-25 23:12:00,
2013-04-25 18:22:00,70.0,50.0,30.26,East,97,1.0,3.0,49,0.00,,,0.00,,2013-04-25 23:22:00,
2013-04-25 18:32:00,69.0,50.0,30.26,NE,49,0.0,4.0,50,0.00,,,0.00,,2013-04-25 23:32:00,
2013-04-25 18:42:00,69.0,50.0,30.26,NE,49,0.0,4.0,50,0.00,,,0.00,,2013-04-25 23:42:00,
2013-04-25 18:52:00,68.0,49.0,30.25,NE,51,1.0,4.0,51,0.00,,,0.00,,2013-04-25 23:52:00,
2013-04-25 19:01:00,66.0,46.0,30.26,SE,139,1.0,4.0,49,0.00,,,0.00,,2013-04-26 00:01:00,
2013-04-25 19:11:00,66.0,46.0,30.26,SE,139,1.0,4.0,49,0.00,,,0.00,,2013-04-26 00:11:00,
2013-04-25 19:21:00,65.0,48.0,30.26,East,97,0.0,0.0,55,0.00,,,0.00,,2013-04-26 00:21:00,
2013-04-25 19:32:00,63.0,48.0,30.27,NNW,338,0.0,0.0,57,0.00,,,0.00,,2013-04-26 00:32:00,
2013-04-25 19:41:00,63.0,48.0,30.27,NNW,338,0.0,0.0,57,0.00,,,0.00,,2013-04-26 00:41:00,
2013-04-25 19:52:00,62.0,49.0,30.27,ESE,121,0.0,1.0,62,0.00,,,0.00,,2013-04-26 00:52:00,
2013-04-25 20:01:00,61.0,49.0,30.27,ESE,121,0.0,0.0,65,0.00,,,0.00,,2013-04-26 01:01:00,
2013-04-25 20:11:00,61.0,49.0,30.27,ESE,121,0.0,0.0,65,0.00,,,0.00,,2013-04-26 01:11:00,
2013-04-25 20:21:00,59.0,49.0,30.27,ESE,121,0.0,0.0,69,0.00,,,0.00,,2013-04-26 01:21:00,
2013-04-25 20:31:00,59.0,50.0,30.27,ESE,121,0.0,0.0,72,0.00,,,0.00,,2013-04-26 01:31:00,
2013-04-25 20:42:00,59.0,50.0,30.27,ESE,121,0.0,0.0,72,0.00,,,0.00,,2013-04-26 01:42:00,
2013-04-25 20:52:00,58.0,51.0,30.28,ESE,121,0.0,0.0,77,0.00,,,0.00,,2013-04-26 01:52:00,
2013-04-25 21:02:00,58.0,51.0,30.28,ESE,121,0.0,0.0,77,0.00,,,0.00,,2013-04-26 02:02:00,
2013-04-25 21:11:00,58.0,51.0,30.28,ESE,121,0.0,0.0,77,0.00,,,0.00,,2013-04-26 02:11:00,
2013-04-25 21:21:00,57.0,48.0,30.28,ESE,121,0.0,0.0,73,0.00,,,0.00,,2013-04-26 02:21:00,
2013-04-25 21:32:00,57.0,50.0,30.28,ESE,122,0.0,0.0,76,0.00,,,0.00,,2013-04-26 02:32:00,
2013-04-25 21:42:00,57.0,50.0,30.28,ESE,122,0.0,0.0,76,0.00,,,0.00,,2013-04-26 02:42:00,
2013-04-25 21:51:00,57.0,50.0,30.28,ESE,120,0.0,1.0,76,0.00,,,0.00,,2013-04-26 02:51:00,
2013-04-25 22:01:00,57.0,49.0,30.29,ESE,120,0.0,1.0,74,0.00,,,0.00,,2013-04-26 03:01:00,
2013-04-25 22:11:00,57.0,49.0,30.29,ESE,120,0.0,1.0,74,0.00,,,0.00,,2013-04-26 03:11:00,
2013-04-25 22:21:00,57.0,50.0,30.29,ESE,120,0.0,0.0,76,0.00,,,0.00,,2013-04-26 03:21:00,
2013-04-25 22:33:00,56.0,49.0,30.29,ESE,118,0.0,0.0,78,0.00,,,0.00,,2013-04-26 03:33:00,
2013-04-25 22:43:00,56.0,49.0,30.29,ESE,118,0.0,0.0,78,0.00,,,0.00,,2013-04-26 03:43:00,
2013-04-25 22:53:00,56.0,50.0,30.29,ESE,118,0.0,0.0,79,0.00,,,0.00,,2013-04-26 03:53:00,
2013-04-25 23:02:00,56.0,50.0,30.28,ESE,118,0.0,0.0,79,0.00,,,0.00,,2013-04-26 04:02:00,
2013-04-25 23:12:00,56.0,50.0,30.28,ESE,118,0.0,0.0,79,0.00,,,0.00,,2013-04-26 04:12:00,
2013-04-25 23:23:00,56.0,50.0,30.28,ESE,118,0.0,0.0,79,0.00,,,0.00,,2013-04-26 04:23:00,
2013-04-25 23:32:00,55.0,49.0,30.28,ESE,118,0.0,0.0,81,0.00,,,0.00,,2013-04-26 04:32:00,
2013-04-25 23:43:00,55.0,49.0,30.28,ESE,118,0.0,0.0,81,0.00,,,0.00,,2013-04-26 04:43:00,
2013-04-25 23:52:00,55.0,50.0,30.28,ESE,118,0.0,0.0,82,0.00,,,0.00,,2013-04-26 04:52:00,